GFSFLT2_850_temp_018.txt.gz
Temp
17 16 16 17 16 16 16 15 15 15 15 15 15 15 14 14 13 13 13 13 13 12 12 12 12 12 12 12 12 12 12 12
16 15 16 16 16 16 16 15 15 15 14 14 14 13 13 13 13 12 12 12 12 12 12 12 12 12 12 12 12 12 12 12
16 16 15 15 15 15 15 15 14 14 14 14 14 13 13 13 13 12 12 12 12 12 12 11 11 11 12 12 12 12 12 12
16 16 15 15 15 15 15 14 14 14 14 14 14 13 13 13 13 13 13 12 12 12 12 12 12 11 11 11 11 11 12 12
16 17 17 16 15 15 14 14 14 13 14 14 13 13 13 13 13 13 13 12 12 12 12 11 11 11 11 11 11 11 11 11
16 17 16 16 15 15 14 14 14 13 14 13 13 13 13 13 13 13 12 12 12 12 12 12 11 11 11 10 10 10 10 11
16 16 15 16 15 15 14 14 14 14 14 14 14 14 13 13 12 12 11 11 11 11 11 11 11 11 11 10 10 10 10 10
17 17 16 16 15 15 15 14 14 14 14 14 13 14 13 12 12 12 11 11 11 11 11 11 11 11 11 11 10 10 10 10
17 17 16 15 15 15 15 14 14 14 14 13 13 13 13 13 12 12 12 12 11 11 11 11 11 10 10 10 10 10 10 10
17 17 16 16 15 15 14 14 14 14 13 13 13 13 12 12 11 12 12 12 11 11 10 10 10 10 9 10 10 10 10 10
17 16 16 16 15 14 14 14 14 13 13 12 12 11 11 11 11 11 11 11 10 9 9 8 8 9 9 9 9 10 10 9
15 14 14 14 14 13 14 13 13 12 12 11 11 10 10 10 10 10 10 9 9 8 8 8 7 7 8 8 8 9 8 8
12 12 13 13 12 13 13 12 11 11 11 10 10 11 10 10 10 9 8 7 7 7 7 6 7 7 6 6 7 6 6 6
12 13 13 12 12 12 12 11 11 11 10 10 10 9 9 9 8 8 7 6 6 6 6 6 5 5 4 4 4 4 4 4
13 13 13 13 13 12 11 11 11 11 11 10 10 9 9 8 7 6 6 6 6 5 5 4 3 3 3 2 2 2 1 2
13 12 12 12 12 12 12 12 11 11 10 10 9 8 7 7 6 5 5 4 4 3 2 2 2 2 2 2 1 0 -0 -0
13 13 12 12 12 11 11 10 10 9 9 8 8 7 6 6 5 4 3 2 1 1 1 1 1 0 -0 0 -0 -0 -1 -2
12 11 11 11 11 10 10 9 8 8 7 6 5 5 6 5 4 2 1 1 0 -0 -0 -1 -1 -1 -2 -2 -2 -2 -2 -2
11 11 11 10 10 9 9 8 7 7 6 6 4 4 4 3 2 1 1 1 -0 -1 -1 -1 -1 -2 -2 -2 -2 -2 -3 -3
10 10 10 10 9 8 7 6 6 6 5 5 4 4 3 2 1 1 0 -1 -1 -2 -2 -2 -3 -3 -3 -3 -4 -4 -4 -4

GFSFLT2_850_temp_021.txt.gz
Temp
17 17 17 16 16 16 16 16 16 16 15 15 14 14 14 13 13 13 13 13 12 12 12 12 12 12 12 12 12 12 12 12
17 17 17 16 16 16 16 16 16 15 15 14 14 13 13 13 13 13 12 12 12 12 12 12 12 12 12 12 12 12 12 12
16 16 16 16 15 15 15 15 15 15 14 14 13 13 13 13 13 12 12 12 12 12 12 12 12 12 12 12 12 12 12 12
16 16 16 15 15 15 14 14 14 14 14 14 14 13 13 13 13 12 12 12 12 11 11 11 11 11 11 11 11 12 12 11
16 16 15 15 15 15 15 15 15 14 14 14 14 14 13 13 13 12 12 12 11 11 11 11 11 11 11 10 10 10 11 11
16 16 15 15 15 15 15 15 15 15 14 14 14 14 14 13 13 12 12 11 11 11 11 11 11 11 11 10 10 10 10 10
16 16 16 16 15 15 15 15 15 14 14 14 14 14 13 13 12 12 12 12 12 11 11 11 11 11 11 11 10 10 10 10
16 16 15 15 15 15 15 14 14 14 14 13 13 13 13 12 12 12 12 12 12 12 11 11 10 10 10 10 10 9 9 9
16 15 15 15 15 14 14 14 14 14 14 13 13 13 12 12 11 11 11 11 11 11 10 11 10 10 9 9 9 9 9 9
14 14 14 14 14 14 13 13 14 13 13 13 12 12 11 11 10 10 11 11 10 10 9 10 9 9 9 9 9 9 9 9
13 13 13 13 13 14 13 13 13 13 12 12 12 11 11 11 11 11 10 10 9 9 9 8 7 7 7 8 8 8 8 8
12 12 12 12 12 13 13 13 12 12 12 11 11 11 11 11 10 10 9 8 9 8 8 7 7 6 6 6 6 7 7 6
12 12 12 11 12 12 12 12 11 11 11 11 11 10 10 10 10 9 8 8 7 7 6 6 6 6 5 4 5 4 5 4
14 13 12 12 12 12 11 11 11 11 11 10 10 10 10 9 9 8 8 7 6 6 6 5 5 3 2 2 2 2 2 3
13 13 13 12 12 12 12 11 11 11 11 10 9 9 8 7 6 6 6 5 5 4 4 4 3 2 2 1 1 1 -1 0
13 13 12 12 12 12 12 11 11 10 10 9 8 7 7 6 5 4 4 4 3 3 2 2 1 0 0 0 -0 -1 -2 -1
12 11 11 11 11 10 10 10 9 9 8 7 6 6 6 5 4 3 4 3 2 2 1 -0 -1 -1 -1 -1 -2 -2 -2 -2
11 11 11 10 10 10 9 8 8 7 6 6 6 6 5 4 4 3 3 2 2 1 -0 -1 -1 -2 -2 -2 -2 -3 -3 -3
11 10 10 10 9 8 8 7 7 6 6 5 4 4 4 3 3 2 2 2 1 -1 -2 -2 -2 -2 -3 -3 -3 -3 -3 -4
10 10 9 9 8 8 7 6 6 5 5 4 4 4 3 2 1 1 0 -1 -1 -2 -2 -3 -3 -3 -3 -3 -3 -4 -4 -4

GFSFLT2_850_temp_027.txt.gz
Temp
14 15 15 15 15 15 15 15 15 14 14 14 14 14 14 13 13 13 13 13 13 13 13 13 13 13 13 13 13 13 13 13
15 15 15 15 14 15 15 15 14 14 14 14 14 14 13 13 13 13 13 13 13 13 13 12 12 12 12 12 12 12 12 12
15 16 15 15 15 15 14 14 14 14 14 13 13 13 13 13 13 13 13 12 12 12 12 11 12 12 12 12 12 11 12 12
16 16 15 15 15 14 14 14 14 14 13 13 13 13 13 12 12 12 12 12 11 11 11 11 11 11 11 11 12 11 11 11
16 16 15 15 14 14 14 13 13 13 13 13 13 13 12 12 12 12 12 11 11 11 11 11 11 11 11 11 11 11 11 10
15 15 14 14 14 13 13 13 13 13 13 13 13 12 12 12 12 12 12 11 11 11 11 11 10 11 11 11 11 11 11 10
15 14 14 14 13 13 13 13 12 12 12 12 12 12 12 12 12 12 11 11 11 11 11 10 10 10 10 10 10 10 10 10
15 14 14 13 13 13 13 13 13 12 12 12 12 12 11 11 11 11 11 11 10 10 10 9 9 9 9 9 9 9 9 9
14 14 13 13 13 12 13 12 12 12 12 12 12 12 11 11 10 10 10 10 10 10 9 9 8 8 8 8 8 8 8 8
14 13 12 12 12 12 12 10 11 12 12 12 12 11 11 10 10 10 10 10 9 8 8 8 7 7 7 8 8 7 7 7
13 12 12 12 13 14 10 9 10 11 11 11 10 10 10 10 10 10 9 9 8 7 7 6 6 6 6 6 7 7 7 7
13 12 11 10 11 11 10 10 11 11 11 11 11 10 10 10 9 8 8 7 6 6 6 5 5 5 5 4 5 5 5 5
12 12 12 12 11 11 10 11 11 11 11 11 10 10 9 9 7 6 6 6 6 5 5 5 4 4 3 2 3 4 3 4
12 12 12 11 11 11 11 11 11 11 11 10 10 9 8 7 6 6 6 5 5 4 4 4 4 3 2 1 3 3 1 2
12 12 11 11 11 11 11 11 11 10 10 10 9 8 7 6 6 5 4 4 3 3 3 2 2 1 1 -0 1 2 -1 -0
12 12 11 11 10 10 11 10 10 10 9 8 7 7 6 5 4 4 3 3 3 2 2 1 1 -1 -1 -2 -2 -2 -2 -1
12 11 11 11 11 10 10 10 9 8 7 6 6 5 5 4 4 3 3 2 2 1 0 -0 -1 -1 -3 -3 -3 -3 -3 -3
12 11 11 10 10 10 9 8 7 7 6 6 5 4 4 3 3 3 2 2 1 0 -0 -1 -2 -2 -3 -4 -3 -3 -4 -4
11 10 10 10 9 8 8 7 6 6 5 5 4 3 3 3 2 2 1 1 0 -0 -1 -2 -2 -3 -3 -4 -4 -4 -5 -5
10 10 9 9 8 8 7 6 5 4 4 4 3 3 3 2 2 1 1 0 -1 -1 -1 -2 -3 -3 -3 -4 -4 -5 -5 -5

GFSFLT2_850_temp_033.txt.gz
Temp
13 14 14 14 14 14 14 14 14 13 13 13 13 13 13 13 13 13 13 13 13 13 13 13 13 13 13 13 13 12 13 14
14 14 12 14 14 14 14 14 13 13 13 13 13 13 13 12 12 12 13 12 12 12 12 12 12 12 12 12 12 13 12 13
14 14 13 12 13 14 14 13 13 13 12 12 12 12 12 11 12 13 12 12 12 12 12 12 12 12 11 11 12 11 12 12
15 14 13 13 13 13 13 13 12 12 12 12 13 12 12 11 13 12 12 12 12 11 11 11 11 11 11 11 11 10 12 12
14 13 12 13 13 13 13 13 13 12 12 12 12 12 12 12 12 12 11 11 11 11 11 11 10 10 10 9 9 10 11 11
13 12 12 13 13 14 14 13 13 12 12 12 11 12 12 12 12 12 11 11 11 11 11 10 10 9 9 9 9 9 10 9
13 12 12 12 13 13 13 12 12 12 12 12 12 12 11 11 11 11 11 11 11 10 10 9 9 9 9 9 9 8 8 9
13 13 12 12 13 12 12 12 11 11 13 12 12 12 12 11 10 10 10 10 10 10 10 9 9 9 9 9 8 8 9 8
13 12 12 12 11 12 13 13 12 12 12 12 11 11 11 10 9 10 9 10 9 8 8 8 8 8 8 8 8 8 8 8
13 12 12 12 12 12 12 14 13 11 11 12 11 11 11 10 10 9 9 8 8 7 7 7 7 7 7 7 7 7 7 7
12 12 12 13 13 13 13 13 12 10 10 11 11 10 10 9 9 9 8 7 7 6 6 6 6 6 7 7 6 7 6 7
12 11 13 13 13 13 11 12 11 10 11 11 10 10 9 8 7 8 8 7 6 5 5 5 5 6 5 5 5 6 6 6
12 12 11 13 12 12 11 11 10 11 10 10 9 8 8 8 7 7 6 6 5 5 4 4 5 4 4 5 5 5 6 6
12 11 11 11 11 11 11 10 9 9 9 8 7 8 7 7 7 6 6 5 5 5 4 4 4 4 3 4 4 4 6 5
11 11 11 12 12 11 11 10 9 9 8 8 7 7 6 6 6 5 5 5 5 4 4 3 3 3 3 3 3 4 3 3
12 12 13 12 11 11 11 12 12 11 10 9 7 6 6 6 5 5 4 4 4 4 4 3 2 2 2 2 2 2 2 2
14 13 12 11 11 11 11 11 10 9 8 7 7 6 6 6 5 5 4 4 4 3 3 2 2 2 2 2 1 1 1 1
13 12 12 11 10 10 10 9 9 9 8 8 8 7 7 6 5 5 4 3 3 3 2 2 1 1 -0 -0 -0 -0 -1 -1
12 12 11 10 10 9 9 8 8 8 7 7 6 6 6 5 4 3 3 3 2 2 1 1 1 0 -1 -1 -1 -1 -2 -2
12 11 11 10 9 9 8 7 7 7 6 5 5 5 4 3 2 2 2 2 2 2 1 1 -0 -1 -1 -1 -1 -2 -2 -3

GFSFLT2_850_temp_036.txt.gz
Temp
13 14 14 14 14 14 14 14 14 14 14 14 13 13 13 13 13 13 13 13 13 13 13 13 13 13 13 12 12 13 13 13
13 13 13 14 14 14 14 14 14 13 13 13 13 13 13 13 13 13 13 13 13 12 12 12 12 12 11 12 12 12 13 12
13 13 13 14 14 14 13 13 13 13 13 12 12 12 12 12 13 13 13 12 12 12 12 11 11 11 11 11 11 11 12 12
13 13 14 14 14 13 13 13 13 13 13 12 12 12 12 12 12 12 12 12 12 11 11 11 10 11 11 11 10 10 10 11
13 13 13 13 13 13 13 13 12 12 12 12 12 13 13 12 12 12 12 12 11 11 11 11 10 10 9 9 9 9 9 9
14 13 13 13 13 13 13 13 13 13 13 13 13 12 12 13 12 12 12 11 11 11 11 10 10 10 9 9 9 9 9 9
14 13 13 14 14 13 13 13 13 13 13 13 12 12 12 12 12 11 11 11 11 10 10 10 9 9 9 9 9 8 8 8
14 14 13 13 13 13 13 12 13 12 12 12 12 12 12 11 11 11 11 11 10 10 10 8 8 8 8 8 8 8 8 8
13 12 13 13 13 13 13 14 13 13 12 13 12 12 12 11 11 11 11 10 10 9 9 8 8 8 7 7 7 7 7 7
13 12 12 13 13 13 14 15 13 13 11 12 12 11 11 11 11 11 10 10 9 8 7 7 6 6 6 7 6 7 7 6
13 12 13 13 13 14 14 14 13 13 12 13 11 11 11 10 10 10 9 8 7 7 6 6 6 6 6 6 6 5 6 6
13 12 14 13 13 13 13 13 13 12 12 11 10 10 10 10 9 9 8 7 7 6 6 5 5 5 4 4 4 5 5 5
13 12 13 12 12 12 13 12 12 11 11 10 10 10 10 9 8 7 7 7 6 6 5 4 4 4 3 3 3 4 4 5
13 13 12 12 11 11 11 11 11 11 9 10 8 9 7 7 8 7 6 6 6 5 5 4 4 3 3 3 3 3 3 4
14 12 11 12 11 11 11 10 10 10 9 10 9 8 7 7 7 6 6 5 5 5 4 4 3 3 3 2 2 2 2 2
13 12 12 12 12 11 11 11 10 10 10 9 8 8 8 7 6 6 5 5 4 4 4 4 3 2 2 2 2 2 1 1
13 13 13 12 12 12 11 12 11 11 10 9 8 7 7 7 6 6 5 4 4 4 3 3 3 2 2 1 1 1 1 0
13 13 13 12 12 12 11 11 10 9 9 8 8 8 7 7 6 5 5 4 4 3 3 3 2 2 2 0 -0 -1 -1 -1
14 13 13 11 11 10 10 10 9 9 8 8 7 7 6 6 5 5 4 3 2 2 2 2 2 1 1 0 -1 -1 -2 -2
13 13 12 11 10 9 9 9 8 8 7 7 6 5 5 4 4 3 2 2 2 2 1 1 1 1 0 -1 -1 -2 -2 -2